MIDAS 4 DEB, 45468

Orbit data source: Space-Track

MIDAS 4 DEB, 45468 is space debris in LEO originally from a launch on Sat, 21 Oct 1961 UTC launched from the Air Force Western Test Range (AFWTR). Debris objects in space refer to the collection of defunct objects orbiting the Earth. Examples of debris include non-operational satellites, rocket bodies, and fragments generated from explosions, collisions, or faulty payload assembly.

Loading next visibility...
Identifier
45468, 1961-028N
Orbit
LEO
Country
Flag of USUS
Related business
Manufacturer
Unknown
Mission
Spacecraft
Bus & Motor
Unknown
Mass
Unknown
Launch date (UTC)
1961-10-21 (64 years ago)
Launch vehicle
Unknown
Launch site
Air Force Western Test Range (AFWTR)
Object type
Payload
Rocket body
Debris
Shape & HBR
Unknown
Radar Cross Section
Medium (>0.1 m² and <1 m²)

Expand to show TLE details & history
Last TLE update: 5 months ago

TLE from 5 months ago
0 MIDAS 4 DEB
1 45468U 61028N   25104.02930975 -.00000015  00000-0 -45327-2 0  9992
2 45468  95.8268 143.4405 0309801 292.7317  64.1075  8.68905312267145
Epoch: 2025-04-14T00:42Z
TLE epoch observation values (Epoch: 2025-04-14T00:42:12.362Z)
Latitude
-0.00002°
Longitude
-69.56114°
Altitude
3,491.048 km
Speed
6.396 km/s
True Right ascension
09h 33m 45s
True Declination
0° 00' 00"
Sunlit
Object was in daylight at epoch
Visualization orbit readout
Latitude
Unknown
Longitude
Unknown
Altitude
Unknown
Speed
Unknown
Apparent Right ascension
Unknown
Apparent Declination
Unknown
Sunlit
N/A
Visualization observer readout
Local Sidereal Time
14:41:51
Azimuth
Unknown
Elevation
Unknown
Doppler factor
Unknown
Orbital elements
Apogee altitude
3,923.617 km
Perigee altitude
3,304.499 km
Semi-major axis
9,992.195 km
Eccentricity
0.03098
Inclination
95.8268°
RAAN
143.4405°
Arg. of periapsis
292.7317°
True anomaly
67.35434°
Mean anomaly
64.1075°
Eccentric anomaly
65.72559°
Mean motion
2.17296 °/min
Orbital period
165.67 mins
BSTAR
-0.0045327
Loading maneuver chart data...
Computing Atmospheric mass density...
Loading historical data...
Loading historical data...
Loading historical data...
Loading historical data...
Loading historical data...
Loading historical data...
Loading historical data...

Documentation

Showing up to 5 results
|